Location: Peebles
(55.6412°N, 3.1714°W)
Time: 14:38:43
(UTC+01:00)

deb Agena D - Pass Details

Date: 21 September 2024
Orbit: 793 x 976 km, 99.8° (Epoch: 03 October)

Event Time Altitude Azimuth Distance (km) Brightness Sun altitude
Rises 05:38:46 0° 15° (NNE) 3,436 9.9 -11.6°
Reaches altitude 10° 05:41:36 10° 0° (N) 2,527 8.9 -11.2°
Maximum altitude 05:45:45 22° 313° (NW) 1,861 7.7 -10.7°
Enters shadow 05:49:31 12° 268° (W) 2,468 8.0 -10.2°
